weather.gov     
National Weather Service

Regional Weather Roundup
NWS Homepage
This page is being discontinued on March 12, 2014.
The same data is available at this site. Please update your bookmarks.
Thank you, and we apologize for the inconvenience.
Please send an email to SR-SRH.Webmaster@noaa.gov with any concerns.


Current Version
Previous Version:    01  02  03  04  05  06  07  08  09  10  11  12  13  14  15  16  17  18  19  20  21  22  23  24  25  26  27  28  29  30  
   31  32  33  34  35  36  37  38  39  40  41  42  43  44  45  46  47  48  49  50  51  52  53  54  55  56  57  58  59  60  
[Printable]
265
ASHW40 PHFO 240810
RWRHI

WEATHER ROUNDUP FOR HAWAII
NATIONAL WEATHER SERVICE HONOLULU HI
1000 PM HST SUN NOV 23 2014

THIS IS AN AUTOMATED REPORT THAT HAS NOT BEEN QUALITY CONTROLLED.

NOTE..."FAIR" INDICATES FEW OR NO CLOUDS BELOW 12,000 FEET WITH NO
SIGNIFICANT WEATHER AND/OR OBSTRUCTIONS TO VISIBILITY.

* - THESE SITES REPORT LIMITED FIELDS

HIZ001>004-240900-
KAUAI-NIIHAU-

CITY           SKY/WX    TMP DP  RH WIND       PRES   REMARKS
LIHUE APT      CLEAR     72  65  78 SW6       29.93S
PORT ALLEN*      N/A     73 N/A N/A N6          N/A
POIPU*           N/A     72 N/A N/A NW3         N/A
PRINCEVILLE*     N/A     72 N/A N/A MISG        N/A
KOKOLE POINT*  NOT AVBL
MOLOAA DAIRY*  NOT AVBL
WAIMEA HTS*    NOT AVBL
PUU OPAE*      NOT AVBL
PUU LUA*       NOT AVBL
MAKAHA RIDGE*  NOT AVBL
$$

HIZ005>011-240900-
OAHU-

CITY           SKY/WX    TMP DP  RH WIND       PRES   REMARKS
HONOLULU       PTCLDY    76  68  76 W6        29.94R
KALAELOA       CLEAR     76  67  73 W8        29.95S
KANEOHE MCB    CLEAR     78  67  68 SW7       29.93S
WHEELER FIELD  FAIR      70  63  79 VRB1      29.95S
BELLOWS*       NOT AVBL
KAHUKU*        NOT AVBL
WHEELER*       NOT AVBL
WAIANAE HARBOR NOT AVBL
DILLINGHAM*      N/A     72  66  83 S2          N/A
KAHUKU TRN*      N/A     72  64  78 SW5G12      N/A
KAWAILOA*        N/A     70  63  78 SW3         N/A
KII*             N/A     72  66  83 S5          N/A
MAKUA RANGE*     N/A     77  68  73 SW3G10      N/A
OAHU FOREST NW NOT AVBL
SCHOFIELD BRK*   N/A     72  64  78 MISG        N/A
SCHOFIELD S*   NOT AVBL
WAIANAE VLY*   NOT AVBL
KUAOKALA*      NOT AVBL
HONOULIUULI*   NOT AVBL
MOKUOLOE IS*     N/A    N/A N/A N/A MISG        N/A
PALEHUA*       NOT AVBL
WAIAWA PHB*    NOT AVBL
$$

HIZ012>013-240900-
MOLOKAI-

CITY           SKY/WX    TMP DP  RH WIND       PRES   REMARKS
MOLOKAI AIRPT  CLOUDY    74  70  87 SW5       29.95R
KALAUPAPA      NOT AVBL
MAKAPULAPAI*   NOT AVBL
MOLOKAI 1*     NOT AVBL
PUU ALII*      NOT AVBL
$$

HIZ016-240900-
KAHOOLAWE-

CITY           SKY/WX    TMP DP  RH WIND       PRES   REMARKS
KAHOOLAWE*     NOT AVBL
HAKIOAWA*      NOT AVBL
HONOKANAIA*      N/A     77  69  77 SW7       29.96R
KANELOA*         N/A     73  68  83 W5        29.17R
KEALIALALO*    NOT AVBL
LUA MAKIKA*    NOT AVBL
$$

HIZ014>015-240900-
LANAI-

CITY           SKY/WX    TMP DP  RH WIND       PRES   REMARKS
LANAI CITY     MOCLDY    70  70 100 CALM      30.01R
LANAI 1*       NOT AVBL
$$

HIZ017>028-240900-
MAUI-

CITY           SKY/WX    TMP DP  RH WIND       PRES   REMARKS
KAHULUI        CLEAR     73  64  73 S9        29.94R
KAPALUA-W MAUI NOT AVBL
HANA AIRPORT   PTCLDY    68  64  88 CALM      29.97R
HANA*          NOT AVBL
HALEAKALA SUMM   N/A     45  -4  13 SW10G23     N/A
MAALAEA BAY*   NOT AVBL
HALEAKALA*     NOT AVBL
KAUPO GAP*     NOT AVBL
KULA 1*          N/A     52   6  15 SE5         N/A
$$

HIZ023>026-240900-
BIG ISLAND OF HAWAII COAST AND LOWER SLOPES-

CITY           SKY/WX    TMP DP  RH WIND       PRES   REMARKS
KAILUA KONA    PTCLDY    75  66  73 E5        29.93S
HILO           CLEAR     69  67  93 S3        29.94F
HONOKAA*       NOT AVBL
KAWAIHAE MWT*  NOT AVBL
KAWAIHAE*        N/A     79 N/A N/A N3          N/A
SOUTH POINT*   NOT AVBL
UPOLU AIRPORT* NOT AVBL
KAMUELA*       MOSUNNY   59  57  94 E5        30.06R FOG
HAKALAU*         N/A     43  36  75 W5          N/A
KALOKO-HONOKO* NOT AVBL
PALI 2*          N/A     61  59  94 N3          N/A
KEALAKOMO*       N/A     73  68  83 N3          N/A
KAUPULEHU*     NOT AVBL
KAPAPALA*        N/A     63  62  95 CALM        N/A
LOWER KAHUKU*  NOT AVBL
PUHE CS*       NOT AVBL
PUHO CS*       NOT AVBL
PTA KEAMUKU*     N/A     61  59  94 CALM        N/A
WAIKOLOA*      NOT AVBL
$$

HIZ027>028-240900-
BIG ISLAND OF HAWAII INTERIOR AND SUMMMITS-

CITY           SKY/WX    TMP DP  RH WIND       PRES   REMARKS
BRADSHAW FIELD CLOUDY    44  30  56 SE6       30.27F
MK VISITOR CEN NOT AVBL
MAUNA KEA*       N/A     34 -13  13 NW46        N/A  WCI  17
MAUNA LOA*       N/A     43 -15   8 MISG        N/A
MAUNA LOA 1*   NOT AVBL
PTA KIPUKA*      N/A     48  43  81 CALM        N/A
PTA RANGE 17*    N/A     52  46  82 E6          N/A
PTA WEST*        N/A     52  50  93 SE9         N/A
NENE CABIN*    NOT AVBL
AHUMOA*        NOT AVBL
PTA PORTABLE*  NOT AVBL
PUU MALI*      NOT AVBL
$$

HIC003-240900-
NORTHWEST ISLANDS-

CITY           SKY/WX    TMP DP  RH WIND       PRES   REMARKS
MIDWAY ISLAND  PTCLDY    64  48  55 E10       30.24R
MIDWAY NOS*    NOT AVBL
FRENCH FRIGATE NOT AVBL
$$

PHZ110>124-180-240900-
BUOY REPORTS

STATION/POSITION TIME  TEMP    WIND        PRES    WAVE   SWELL
                       AIR SEA DIR/SP/G            HT/PER HT/DIR
                 (UTC) (F)     (DEG/KT/KT) (MB)    (FT/S) (FT/D)
BUOY 51001       NOT AVBL
BUOY 51101       0800   72 78  340/ 21/ 27 1013.9R  11/14   8/320
BUOY 51100       NOT AVBL
BUOY 51003       0700   78 81   CALM  /  2 1014.6R   9/13   8
BUOY 51004       0715   79 80  120/ 12/ 14 1013.8F   7/10   7/ 80
BARBERS PT BUOY  NOT AVBL
WAIMEA BAY BUOY  0800      80                N/A     7/12
KAILUA BAY BUOY  0800      79                N/A     6/11   3/ 80
LANAI BUOY       0800      80                N/A     3/11   2/230
BARBERS PT 2     0800      80                N/A     4/13   3/310
PAUWELA MAUI     0800      78                N/A     8/13
HILO             0800      80                N/A     8/11   3/110
KANEOHE BAY BUOY 0800      79                N/A     5/12   3/360
HANALEI KAUAI    NOT AVBL
KAHULUI HARBOR   0800   75 79  170/  5/  8 1013.7R
HONOLULU HARBOR  0800   78     260/  6/  9 1014.0F
KILO NALU        NOT AVBL
HILO HARBOR      0800   72     170/  3/  4 1013.4F
MOKUOLOE         0800      79              1013.7S
NAWILIWILI       0800      80                N/A
WHOTS BUOY       NOT AVBL
BUOY 51028       NOT AVBL
$$

......................KEY........................................
  SKY/WX - SKY CONDITIONS/PRESENT WEATHER
  TMP    - TEMPERATURE IN FAHRENHEIT
  DWPT   - DEWPOINT IN FAHRENHEIT
  RH     - RELATIVE HUMIDITY IN PERCENT
  WIND   - DIRECTION AND SPEED /MPH FOR ISLANDS...KTS FOR BUOYS/
  PRES   - MEAN SEA LEVEL PRESSURE IN INCHES OF HG
  VSB    - VISIBILITY IN MILES
  HX     - HEAT INDEX
  WCI    - WIND CHILL INDEX
  VRB    - VARIABLE WIND DIRECTION
  N/A    - NOT AVAILABLE




U.S. Dept. of Commerce
NOAA National Weather Service
1325 East West Highway
Silver Spring, MD 20910
E-mail: w-nws.webmaster@noaa.gov
Page last modified: May 16, 2007
NATIONAL WEATHER SERVICE: for Safety, for Work, for Fun - FOR LIFE